Location: Devore Heights
(34.2372°N, 117.4156°W)
Time: 19:09:21
(UTC+00:00)

Vanguard 1 Rocket - Pass Details

Date: 21 September 2024
Orbit: 650 x 4218 km, 34.3° (Epoch: 04 October)

Event Time Altitude Azimuth Distance (km) Brightness Sun altitude
Rises 14:56:20 0° 285° (WNW) 6,561 11.1 15.4°
Reaches altitude 10° 15:00:01 10° 284° (WNW) 5,914 11.0 16.1°
Maximum altitude 15:20:47 69° 206° (SSW) 4,253 11.0 20.3°
Drops below altitude 10° 15:46:27 10° 129° (SE) 7,027 13.3 25.4°
Sets 15:51:22 0° 127° (SE) 7,776 13.3 26.4°
